Regional Weather Roundup
Issued by NWS

Home | Current Version | Previous Version | Graphics & Text | Print | Product List | Glossary Off
Versions: 1 2 3 4 5 6 7 8 9 10 11 12 13 14 15 16 17 18 19 20 21 22 23 24 25 26 27 28 29 30 31 32 33 34 35 36 37 38 39 40 41 42 43 44 45 46 47 48 49 50

000
ASUS43 KDTX 270401
RWRMI
MICHIGAN HOURLY REGIONAL WEATHER ROUNDUP
NATIONAL WEATHER SERVICE DETROIT/PONTIAC MI
1200 AM EDT FRI MAR 27 2015

NOTE: "FAIR" INDICATES FEW OR NO CLOUDS BELOW 12,000 FEET WITH NO
SIGNIFICANT WEATHER AND/OR OBSTRUCTION TO VISIBILITY.

MIZ047>049-052>055-059>063-066>070-074>076-081>083-270500-
SOUTHEAST LOWER MICHIGAN

CITY           SKY/WX    TMP DP  RH WIND       PRES   REMARKS
ADRIAN         CLOUDY    34  20  56 NW10      29.96R WCI  26
ALMA           CLOUDY    27  18  68 N12       30.00R WCI  17
ANN ARBOR      CLOUDY    34  22  61 NW9       29.93R WCI  27
BAD AXE        LGT SNOW  27  22  80 NW9       29.93R WCI  18
CARO           CLOUDY    27  19  71 NW13G21   29.95R WCI  16
DETROIT CITY   CLOUDY    37  24  59 NW8       29.93R WCI  31
DETROIT        CLOUDY    36  23  59 W10       29.94R WCI  28
FLINT          CLOUDY    31  22  69 NW15      29.95R WCI  20
GROSSE ILE     CLOUDY    36  25  64 W7        29.92R WCI  30
HILLSDALE      CLOUDY    33  22  66 NW10      29.94S WCI  24
HOWELL         CLOUDY    32  22  68 NW14G20   29.93S WCI  22

CITY           SKY/WX    TMP DP  RH WIND       PRES   REMARKS
JACKSON        CLOUDY    32  22  66 NW10      29.95R WCI  24
LAMBERTVILLE   CLOUDY    36  27  69 NW7       29.95S WCI  30
LANSING        CLOUDY    29  19  66 NW10      29.98S WCI  20
LAPEER         CLOUDY    28  23  80 NW10G16   29.94R WCI  19
MASON          CLOUDY    30  22  70 NW10      29.96R WCI  21
MONROE         CLOUDY    36  25  64 NW9G16    29.92F WCI  29
MT. CLEMENS    FLURRIES  35  26  70 NW13      29.89R WCI  26
PONTIAC        CLOUDY    31  23  72 NW13      29.91R WCI  21
PORT HOPE        N/A     28  21  75 NW18      29.91R WCI  15
PORT HURON     FLURRIES  30  27  86 NW8G18    29.92R WCI  23
TRI CITIES     CLOUDY    26  16  65 NW15      29.99R WCI  14
TROY           CLOUDY    35  24  64 NW14      29.94R WCI  26
SAGINAW HB     CLOUDY    28  19  69 NW12G17   29.98R WCI  18
$$
MIZ043>046-050>051-056>058-064>065-071>073-077>080-270500-
SOUTHWEST LOWER MICHIGAN

CITY           SKY/WX    TMP DP  RH WIND       PRES   REMARKS
BATTLE CREEK   CLOUDY    32  23  69 NW10      29.98S WCI  24
BENTON HARBOR  FLURRIES  30  27  88 NW7       30.04R WCI  23
BIG RAPIDS     FLURRIES  23  15  71 NW12G20   30.01R WCI  11
COLDWATER      CLOUDY    32  22  67 NW12      29.97S WCI  23
FREMONT        MOCLDY    24  11  60 N17G26    30.04R WCI  10
HOLLAND        CLOUDY    30  19  63 NW7       30.04R WCI  23
GRAND RAPIDS   FLURRIES  29  20  69 NW9       30.01R WCI  20
IONIA          CLOUDY    29  20  67 N12       29.98R WCI  20
KALAMAZOO      CLOUDY    32  22  66 NW12      30.00R WCI  23
LUDINGTON      CLOUDY    24  14  66 N10G22    30.07S WCI  14
MARSHALL       CLOUDY    31  23  72 NW7       29.97R WCI  24
MOUNT PLEASANT CLOUDY    23  13  65 NW12G21   30.01R WCI  12
MUSKEGON       CLOUDY    27  15  61 N10G20    30.06R WCI  17
SOUTH HAVEN    LGT SNOW  30  27  88 N7        30.03R WCI  23
$$
MIZ016>042-270500-
NORTHERN LOWER MICHIGAN

CITY           SKY/WX    TMP DP  RH WIND       PRES   REMARKS
ALPENA         LGT SNOW  22  17  81 NW12G21   29.95S WCI  10
BEAVER ISLAND  CLOUDY    19  13  77 N9G18     30.06S WCI   8
BELLAIRE       FLURRIES  19  13  76 NW6       30.06R WCI  11
CADILLAC       FLURRIES  19  12  74 NW16G25   29.98S WCI   4
CHARLEVOIX     LGT SNOW  19  15  84 NW12G22   30.08S WCI   7
FRANKFORT      CLOUDY    24   8  48 NW9G23    30.09R WCI  15
GAYLORD        LGT SNOW  16  12  84 VRB6G17   29.96S FOG     WCI   7
GRAYLING       FLURRIES  17  11  75 NW10G23   29.99R WCI   5
HARBOR SPRINGS LGT SNOW  19  13  79 W6        30.02S WCI  10
HOUGHTON LAKE  CLOUDY    18  11  74 NW13G21   29.98R WCI   5
MANISTEE       CLOUDY    23  12  63 N14G24    30.08S WCI  11
OSCODA         CLOUDY    24  17  72 NW15      29.94R WCI  12
PELLSTON       LGT SNOW  18  13  80 NW17      30.02R WCI   3
ROGERS CITY    LGT SNOW  23  21  93 NW9G18    29.96F WCI  13
TRAVERSE CITY  CLOUDY    20  13  74 N12       30.06S WCI   8
$$
MIZ007>008-015-270500-
EASTERN UPPER MICHIGAN

CITY           SKY/WX    TMP DP  RH WIND       PRES   REMARKS
KINROSS        CLOUDY    16  14  93 N13       30.00R WCI   2
MACKINAC ISLAN CLOUDY    19  14  80 N15G23    30.00S WCI   5
NEWBERRY       CLOUDY    15   9  77 N15       30.04S WCI   0
S. S. MARIE    FLURRIES  18   9  68 N9        30.02R WCI   7
$$
MIZ004>006-011>014-085-270500-
CENTRAL UPPER MICHIGAN

CITY           SKY/WX    TMP DP  RH WIND       PRES   REMARKS
MANISTIQUE     CLOUDY    19   8  64 N10G18    30.08S WCI   7
ESCANABA       CLOUDY    19   7  58 NW7       30.12S WCI  10
MENOMINEE      MOCLDY    19   3  49 N9G17     30.14S WCI   9
SAWYER-GWINN   MOCLDY    17   6  64 N14       30.08S WCI   2
$$
MIZ001>003-009>011-084-270500-
WESTERN UPPER MICHIGAN

CITY           SKY/WX    TMP DP  RH WIND       PRES   REMARKS
IRON MOUNTAIN  CLEAR      9   2  73 NW3       30.10S
HOUGHTON       CLOUDY    16   4  59 N13       30.14R WCI   2
COPPER HARBOR    N/A     16   6  65 NE9       30.16R WCI   4
IRONWOOD       CLOUDY    21   7  53 N12       30.13R WCI   9
$$

ABBREVIATIONS USED IN REMARKS
   TC - TEMPERATURE IN CELSIUS
  WCI - WIND CHILL INDEX
   HX - HEAT INDEX
  VSB - VISIBILITY



USA.gov is the U.S. government's official web portal to all federal, state and local government web resources and services.